| time (UTC) | temp F | wind direction | speed MPH | gust MPH | rain 1hr in | rain 24hr in | rain mn in | humidity % | barometer mb |
| 20260502204603 | 77 | 293 | 1.0 | 6.0 | 0.00 | 0.00 | 0.00 | 22 | 1012.3 |
| 20260502203118 | 76 | 274 | 1.0 | 6.0 | 0.00 | 0.00 | 0.00 | 25 | 1012.4 |
| 20260502201603 | 75 | 326 | 3.0 | 6.0 | 0.00 | 0.00 | 0.00 | 27 | 1012.6 |
| 20260502200056 | 74 | 291 | 2.0 | 6.0 | 0.00 | 0.00 | 0.00 | 32 | 1012.7 |
| 20260502194546 | 73 | 294 | 3.0 | 7.0 | 0.00 | 0.00 | 0.00 | 35 | 1012.9 |
| 20260502193056 | 73 | 345 | 3.0 | 6.0 | 0.00 | 0.00 | 0.00 | 36 | 1013.1 |
| 20260502191540 | 71 | 290 | 1.0 | 6.0 | 0.00 | 0.00 | 0.00 | 39 | 1013.3 |
| 20260502190043 | 70 | 302 | 2.0 | 7.0 | 0.00 | 0.00 | 0.00 | 42 | 1013.5 |
| 20260502184543 | 68 | 295 | 2.0 | 6.0 | 0.00 | 0.00 | 0.00 | 43 | 1013.6 |
| 20260502183031 | 68 | 295 | 2.0 | 5.0 | 0.00 | 0.00 | 0.00 | 46 | 1013.9 |
| 20260502181527 | 67 | 291 | 3.0 | 6.0 | 0.00 | 0.00 | 0.00 | 47 | 1014.1 |
| 20260502163008 | 57 | 41 | 1.0 | 4.0 | 0.00 | 0.00 | 0.00 | 58 | 1015.2 |
| 20260502161506 | 58 | 321 | 2.0 | 4.0 | 0.00 | 0.00 | 0.00 | 57 | 1015.4 |
| 20260502151612 | 51 | 340 | 0.0 | 3.0 | 0.00 | 0.00 | 0.00 | 70 | 1016.0 |
| 20260502123040 | 39 | 121 | 0.0 | 0.0 | 0.00 | 0.00 | 0.00 | 90 | 1016.0 |
| 20260502121537 | 39 | 122 | 0.0 | 0.0 | 0.00 | 0.00 | 0.00 | 90 | 1015.9 |
| 20260502114533 | 39 | 122 | 0.0 | 0.0 | 0.00 | 0.00 | 0.00 | 88 | 1016.0 |
| 20260502113037 | 40 | 122 | 0.0 | 0.0 | 0.00 | 0.00 | 0.00 | 88 | 1015.9 |
| 20260502111529 | 40 | 122 | 0.0 | 0.0 | 0.00 | 0.00 | 0.00 | 88 | 1016.0 |
| 20260502110027 | 40 | 122 | 0.0 | 0.0 | 0.00 | 0.00 | 0.00 | 87 | 1016.0 |
| 20260502104532 | 40 | 122 | 0.0 | 0.0 | 0.00 | 0.00 | 0.00 | 88 | 1016.0 |
| 20260502103025 | 40 | 122 | 0.0 | 0.0 | 0.00 | 0.00 | 0.00 | 87 | 1016.0 |
| 20260502101524 | 41 | 122 | 0.0 | 2.0 | 0.00 | 0.00 | 0.00 | 87 | 1015.9 |
| 20260502091519 | 42 | 115 | 0.0 | 1.0 | 0.00 | 0.00 | 0.00 | 85 | 1015.8 |
| 20260502071502 | 45 | 324 | 0.0 | 1.0 | 0.00 | 0.00 | 0.00 | 82 | 1015.7 |
| 20260502070116 | 45 | 46 | 0.0 | 1.0 | 0.00 | 0.00 | 0.00 | 81 | 1015.6 |
| 20260502064601 | 46 | 129 | 0.0 | 2.0 | 0.00 | 0.00 | 0.00 | 80 | 1015.5 |
| 20260502063121 | 46 | 124 | 0.0 | 1.0 | 0.00 | 0.00 | 0.00 | 79 | 1015.4 |
| 20260502061558 | 47 | 89 | 0.0 | 1.0 | 0.00 | 0.00 | 0.00 | 78 | 1015.3 |
| 20260502060059 | 49 | 94 | 0.0 | 1.0 | 0.00 | 0.00 | 0.00 | 76 | 1015.3 |
| 20260502054607 | 49 | 122 | 0.0 | 1.0 | 0.00 | 0.00 | 0.00 | 75 | 1015.2 |
| 20260502053056 | 50 | 70 | 0.0 | 1.0 | 0.00 | 0.00 | 0.00 | 75 | 1015.2 |
| 20260502051555 | 50 | 70 | 0.0 | 1.0 | 0.00 | 0.00 | 0.00 | 74 | 1015.3 |
| 20260502050055 | 53 | 75 | 1.0 | 2.0 | 0.00 | 0.00 | 0.00 | 70 | 1015.1 |
| 20260502044554 | 54 | 203 | 0.0 | 1.0 | 0.00 | 0.00 | 0.00 | 66 | 1015.0 |
| 20260502043110 | 55 | 228 | 0.0 | 1.0 | 0.00 | 0.00 | 0.00 | 64 | 1014.8 |
| 20260502041614 | 55 | 307 | 0.0 | 1.0 | 0.00 | 0.00 | 0.00 | 65 | 1014.7 |
| 20260502040058 | 57 | 264 | 0.0 | 1.0 | 0.00 | 0.00 | 0.00 | 61 | 1014.5 |
| 20260502034553 | 58 | 80 | 0.0 | 3.0 | 0.00 | 0.00 | 0.00 | 60 | 1014.2 |
| 20260502031651 | 61 | 295 | 1.0 | 2.0 | 0.00 | 0.00 | 0.00 | 49 | 1013.7 |
| 20260502030109 | 63 | 115 | 0.0 | 0.0 | 0.00 | 0.00 | 0.00 | 49 | 1013.5 |
| 20260502024602 | 65 | 115 | 0.0 | 0.0 | 0.00 | 0.00 | 0.00 | 44 | 1013.3 |
| 20260502023122 | 67 | 125 | 0.0 | 1.0 | 0.00 | 0.00 | 0.00 | 43 | 1013.2 |
| 20260502021549 | 69 | 274 | 0.0 | 2.0 | 0.00 | 0.00 | 0.00 | 38 | 1013.1 |
| 20260502020049 | 71 | 258 | 0.0 | 2.0 | 0.00 | 0.00 | 0.00 | 36 | 1013.1 |
| 20260502014551 | 72 | 270 | 1.0 | 2.0 | 0.00 | 0.00 | 0.00 | 29 | 1013.1 |
| 20260502013053 | 73 | 295 | 1.0 | 3.0 | 0.00 | 0.00 | 0.00 | 31 | 1013.3 |
| 20260502011601 | 73 | 284 | 1.0 | 3.0 | 0.00 | 0.00 | 0.00 | 30 | 1013.5 |
| 20260502010041 | 73 | 317 | 1.0 | 3.0 | 0.00 | 0.00 | 0.00 | 26 | 1013.5 |
| 20260502004540 | 74 | 289 | 1.0 | 4.0 | 0.00 | 0.00 | 0.00 | 26 | 1013.6 |
| 20260502003037 | 74 | 319 | 2.0 | 5.0 | 0.00 | 0.00 | 0.00 | 26 | 1013.7 |
| 20260502001541 | 74 | 295 | 1.0 | 5.0 | 0.00 | 0.00 | 0.00 | 26 | 1013.9 |
| 20260502000052 | 73 | 352 | 3.0 | 7.0 | 0.00 | 0.00 | 0.00 | 25 | 1014.0 |
| 20260501234533 | 74 | 279 | 3.0 | 8.0 | 0.00 | 0.00 | 0.00 | 24 | 1014.1 |
| 20260501233031 | 73 | 314 | 4.0 | 10.0 | 0.00 | 0.00 | 0.00 | 24 | 1014.3 |
| 20260501231529 | 73 | 11 | 5.0 | 10.0 | 0.00 | 0.00 | 0.00 | 26 | 1014.5 |
| 20260501230058 | 74 | 314 | 5.0 | 10.0 | 0.00 | 0.00 | 0.00 | 27 | 1014.7 |
| 20260501224526 | 73 | 304 | 3.0 | 9.0 | 0.00 | 0.00 | 0.00 | 27 | 1014.8 |
| 20260501223022 | 73 | 305 | 5.0 | 9.0 | 0.00 | 0.00 | 0.00 | 27 | 1015.0 |
| 20260501221522 | 74 | 8 | 6.0 | 10.0 | 0.00 | 0.00 | 0.00 | 28 | 1015.1 |
| 20260501220017 | 72 | 307 | 5.0 | 9.0 | 0.00 | 0.00 | 0.00 | 28 | 1015.5 |
| 20260501214514 | 73 | 303 | 5.0 | 10.0 | 0.00 | 0.00 | 0.00 | 29 | 1015.7 |
| 20260501213011 | 73 | 300 | 6.0 | 11.0 | 0.00 | 0.00 | 0.00 | 30 | 1015.8 |
| 20260501211509 | 73 | 281 | 5.0 | 10.0 | 0.00 | 0.00 | 0.00 | 30 | 1016.0 |
| 20260501210007 | 72 | 340 | 8.0 | 13.0 | 0.00 | 0.00 | 0.00 | 31 | 1016.2 |